User: anonymous   Login
Location: Salamanca
(40.9670°N, 5.6500°W)
Time: 05:36:34
(UTC+02:00)
Language:

Cosmos 1633 Rocket - Orbit

View from above orbital plane
View from above orbital plane
View from above satellite
View from above satellite

Ground track
Ground track

The orbit data is extracted from the following two-line orbital elements,

1 15593U 85020B   15145.79143744  .00000225  00000-0  24088-4 0  9998
2 15593 082.5392 247.5510 0011987 015.5413 098.9209 14.84050689632624
Epoch (UTC): 25 May 2015 18:59:40
Eccentricity: 0.0011987
inclination: 82.5392°
perigee height: 608 km
apogee height: 625 km
right ascension of ascending node: 247.5510°
argument of perigee: 15.5413°
revolutions per day: 14.84050689
mean anomaly at epoch: 98.9209°
orbit number at epoch: 63262

The dashed part of the orbit path shows where the satellite is in the earth's shadow,  

DLR